SHIJIAN-17 (SJ-17)

Last updated on Mon Oct 14 2024 00:02:40 GMT+0000 (Coordinated Universal Time)

1 41838U 16065A 24287.58289160 -.00000027 00000+0 00000+0 0 9992 2 41838 4.1860 79.9657 0002599 204.3820 117.4300 1.00271129 29079
UTC large
Height (km)
Speed (km/s)
/
Latitude / Longitude
Inclination (degrees)
Orbital Period (minutes)
Azimuth
Elevation
Range (km)
Doppler Factor

Next 0 passes for location: London (51.5072 / 0.1276)

Sorry there are no passes over London.